Погода в Аягозе

Казахстан     47°57′54″N   80°26′10″E
темп.,
°C
ветер,
м/с
пор.,
м/с
влажн.,
%
обл.,
%
осадки,
мм/ч
давл.,
гПа
погр.,
м
2 марта, вт
вт200:00−5ююз61377100 0.0 1022259
03:00−6юз51279100 0.0 1021242
06:00−5юз51082100 0.0 1021269
09:00−5юз41179100 0.1 1021311
12:00−2юз71177100 0.1 1019418
15:000ююз5979100 0.0 1017338
18:00−3юз61480100 0.0 1016409
21:00−3ююз71483100 0.0 1017343
3 марта, ср
ср300:00−4ююз7129592 0.1 1019401
03:00−6ююз5896100 0.1 1021223
06:00−7ююз5996100 0.2 1023258
09:00−8ююз6995100 0.1 1025415
12:00−8юз699191 0.1 1027435
15:00−8юз610880 0.0 1027465
18:00−12юз45930 0.0 102880
21:00−14ююз459716 0.0 103174
4 марта, чт
чт400:00−16ююз349657 0.0 103246
03:00−17ююз349129 0.0 103127
06:00−17ююз239615 0.0 103220
09:00−15ююз119244 0.0 103121
12:00−8ю237422 0.0 1030187
15:00−6ююз23730 0.0 1027233
18:00−10ююв11780 0.0 102721
21:00−10юв127981 0.0 102621
5 марта, пт
пт500:00−11всв118264 0.0 102422
03:00−8св1287100 0.0 102021
06:00−6св3487100 0.0 101777
09:00−2ю162393100 0.8 1018769
12:00−1ююз101496100 2.8 1023719
15:00−1зюз8108489 0.3 1030939
18:00−6юз479067 0.3 1034115
21:00−10ююз34930 0.0 103534
6 марта, сб
сб600:00−12ю34962 0.0 103521
03:00−12ююз239343 0.0 103421
06:00−13ю128971 0.0 103221
09:00−10всв118417 0.0 103121
12:00−4всв237410 0.0 1027139
15:00−2св34790 0.0 1025182
18:00−7всв34770 0.0 102435
21:00−11св457840 0.0 102444